Regional Weather Roundup
Issued by NWS Green Bay, WI

Home | Current Version | Previous Version | Graphics & Text | Print | Product List | Glossary Off
Versions: 1 2 3 4 5 6 7 8 9 10 11 12 13 14 15 16 17 18 19 20 21 22 23 24 25 26 27 28 29 30 31 32 33 34 35 36 37 38 39 40 41 42 43 44 45 46 47 48 49 50

000
ASUS43 KGRB 290600
RWRGRB

NORTH-CENTRAL AND NORTHEAST WISCONSIN REGIONAL WEATHER ROUNDUP
NATIONAL WEATHER SERVICE GREEN BAY WI
100 AM CDT WED JUL 29 2015

WIZ005-009-010>012-018-019-290700-
NORTH CENTRAL WISCONSIN

CITY           SKY/WX    TMP DP  RH WIND       PRES   REMARKS
IRONWOOD       CLOUDY    77  70  78 SW21G28   29.79S
MANITOWISH WTR NOT AVBL
ARBOR VITAE    NOT AVBL
EAGLE RIVER    NOT AVBL
LAND O LAKES   NOT AVBL
RHINELANDER    LGT RAIN  74  70  87 SW9       29.89F
PHILLIPS       NOT AVBL
ANTIGO         NOT AVBL
TOMAHAWK       NOT AVBL
MERRILL        NOT AVBL
$$

WIZ013-073-290700-
NORTHEAST WISCONSIN

CITY           SKY/WX    TMP DP  RH WIND       PRES   REMARKS
IRON MOUNTAIN  MOCLDY    72  65  78 S7        29.87F
MARINETTE      MOCLDY    73  64  73 SW7       29.87F
$$

WIZ017-030-035>037-045-290700-
CENTRAL WISCONSIN

CITY           SKY/WX    TMP DP  RH WIND       PRES   REMARKS
MEDFORD        NOT AVBL
WAUSAU         CLOUDY    75  70  84 SW9       29.88F
MOSINEE        NOT AVBL
MARSHFIELD     CLOUDY    75  69  81 SW8       29.90F
WISC RAPIDS    CLOUDY    75  69  81 SW7       29.91F
STEVENS POINT  NOT AVBL
WAUPACA        NOT AVBL
SHAWANO        NOT AVBL
CLINTONVILLE   NOT AVBL
$$

WIZ038-039-048-051-290700-
FOX VALLEY

CITY           SKY/WX    TMP DP  RH WIND       PRES   REMARKS
NWS GREEN BAY  PTCLDY    72  68  87 S7        29.89F
APPLETON       NOT AVBL
OSHKOSH        MOCLDY    75  71  87 S6        29.90F
FOND DU LAC    MOCLDY    75  72  90 SW6       29.91F
$$

WIZ022-050-052-290700-
EAST CENTRAL WISCONSIN

CITY           SKY/WX    TMP DP  RH WIND       PRES   REMARKS
STURGEON BAY   MOCLDY    72  64  78 S7        29.92F
MANITOWOC      NOT AVBL
SHEBOYGAN      MOCLDY    68  66  93 S3        29.92F
$$

LMZ563-521-522-541>543-290700-
LAKESHORE

STATION/POSITION TIME  TEMP    WIND        PRES    VSBY  WAVE
                       AIR SEA DIR/SP/G                  HT/PER
                 (UTC) (F)     (DEG/KT/KT) (MB)    (MI)  (FT/S)
SHEBOYGAN LKSHOR 0500   73     210/  8/  9 1014.1R
KEWAUNEE LKSHORE 0500   66     190/  7/  8 1012.6R
NORTHPORT PIER   0500   74     170/  3/  8 1012.5R
N MID LAKE BUOY  0450   73 71  180/ 10/ 12 1012.3F         1/ 3
S GREEN BAY BUOY 0500   76 75  190/ 14/ 16 1014.2
SISTER BAY LKSHO 0514   74     180/ 13/ 17   N/A
CHAMBERS ISLAND  0500   76     160/  6/ 12 1012.2R
MENOMINEE LKSHOR 0500   75     180/  8/ 11 1013.1R
$$


USA.gov is the U.S. government's official web portal to all federal, state and local government web resources and services.